Date,TemperatureHighF,TemperatureAvgF,TemperatureLowF,DewpointHighF,DewpointAvgF,DewpointLowF,HumidityHigh,HumidityAvg,HumidityLow,PressureMaxIn,PressureMinIn,WindSpeedMaxMPH,WindSpeedAvgMPH,GustSpeedMaxMPH,PrecipitationSumIn
2013-3-3,50.4,45.3,40.0,42.6,40.0,36.7,90,82,70,29.99,29.92,8,2,8,0.10
2013-3-4,56.4,41.0,29.9,39.0,32.6,27.4,93,74,42,30.15,29.98,10,1,10,0.01
2013-3-5,68.5,46.4,25.3,34.5,25.6,8.7,92,53,10,30.01,29.67,24,4,24,0.00
2013-3-6,50.6,44.1,34.3,30.6,20.7,13.8,62,40,28,29.94,29.53,40,10,40,0.00
2013-3-7,45.2,35.7,25.6,29.6,22.9,15.9,81,60,41,29.98,29.89,11,2,11,0.00
2013-3-8,50.9,39.4,30.5,28.6,26.0,22.2,84,61,36,29.99,29.82,15,2,15,0.00
2013-3-9,54.2,40.8,29.0,23.5,11.3,0.1,64,34,11,30.42,29.99,25,4,25,0.00
2013-3-10,59.1,41.5,20.9,16.1,10.1,5.6,63,31,13,30.51,30.35,9,1,10,0.00
2013-3-11,65.5,46.1,25.0,16.9,11.2,6.9,54,28,10,30.38,30.16,14,1,14,0.00
2013-3-12,71.7,50.1,28.8,23.5,17.6,11.5,57,31,14,30.24,30.09,9,1,10,0.00
2013-3-13,78.3,55.6,31.5,25.6,18.1,10.6,57,28,8,30.21,30.05,11,1,11,0.00
2013-3-14,70.4,54.1,37.7,27.4,22.5,18.1,51,31,16,30.11,30.04,5,0,5,0.00
2013-3-15,73.9,55.4,34.6,28.7,20.8,7.8,65,32,8,30.09,29.93,14,2,14,0.00
2013-3-16,71.7,56.2,38.0,28.6,22.0,11.5,57,29,11,29.98,29.76,26,5,26,0.00
2013-3-17,55.4,46.0,34.6,22.4,16.9,8.8,55,33,16,30.01,29.91,14,2,14,0.00
2013-3-18,64.4,48.6,27.5,25.8,14.5,10.4,52,28,13,30.10,29.94,18,2,18,0.00
2013-3-19,67.7,56.2,45.4,35.5,30.3,24.3,49,38,25,30.05,29.87,20,5,20,0.00
2013-3-20,67.0,56.5,49.4,34.9,31.9,28.6,50,40,27,29.88,29.75,38,10,38,0.00
2013-3-21,57.4,46.4,33.4,31.7,21.5,4.0,81,42,16,30.03,29.84,16,3,17,0.00
2013-3-22,51.1,37.4,23.5,11.5,5.9,-0.2,53,28,13,30.21,29.98,17,4,21,0.00
2013-3-23,51.6,36.0,17.4,10.4,6.3,0.9,55,31,15,30.33,30.13,12,2,12,0.00
2013-3-24,63.1,43.2,22.5,14.6,8.5,0.7,45,26,14,30.23,29.98,14,1,14,0.00
2013-3-25,70.3,51.9,29.5,22.3,11.8,-7.0,45,24,5,30.01,29.78,21,3,21,0.00
2013-3-26,69.3,56.0,39.0,28.2,24.1,15.7,51,30,17,29.83,29.71,22,4,22,0.00
2013-3-27,68.7,52.2,33.8,31.9,27.8,22.7,72,42,20,29.90,29.79,13,2,15,0.00
2013-3-28,69.0,56.3,46.2,36.5,32.4,24.4,59,42,22,30.03,29.87,25,3,25,0.00
2013-3-29,72.2,56.1,38.2,37.0,31.0,21.8,79,43,18,30.10,29.97,9,1,10,0.00
2013-3-30,78.7,59.1,38.2,29.6,26.7,23.4,58,32,14,30.06,29.80,15,2,15,0.00
2013-3-31,52.2,47.9,36.8,41.7,37.5,32.6,86,67,56,29.95,29.86,22,3,22,0.02